| time (UTC) | temp F | wind direction | speed MPH | gust MPH | rain 1hr in | rain 24hr in | rain mn in | humidity % | barometer mb |
| 20260507111524 | 54 | 59 | 3.0 | 4.0 | 0.00 | 0.00 | 0.00 | 86 | 1017.1 |
| 20260507110011 | 53 | 82 | 2.0 | 3.0 | 0.00 | 0.00 | 0.00 | 85 | 1017.1 |
| 20260507104516 | 54 | 43 | 0.0 | 2.0 | 0.00 | 0.00 | 0.00 | 86 | 1017.0 |
| 20260507103017 | 54 | 79 | 2.0 | 3.0 | 0.00 | 0.00 | 0.00 | 85 | 1017.1 |
| 20260507101522 | 54 | 75 | 1.0 | 2.0 | 0.00 | 0.00 | 0.00 | 85 | 1017.2 |
| 20260507100035 | 54 | 79 | 1.0 | 2.0 | 0.00 | 0.00 | 0.00 | 85 | 1017.1 |
| 20260507094510 | 54 | 70 | 1.0 | 3.0 | 0.00 | 0.00 | 0.00 | 84 | 1017.3 |
| 20260507093016 | 54 | 57 | 2.0 | 3.0 | 0.00 | 0.00 | 0.00 | 85 | 1017.5 |
| 20260507091525 | 54 | 47 | 0.0 | 3.0 | 0.00 | 0.00 | 0.00 | 84 | 1017.7 |
| 20260507090024 | 54 | 67 | 1.0 | 2.0 | 0.00 | 0.00 | 0.00 | 84 | 1017.9 |
| 20260507084528 | 55 | 61 | 0.0 | 2.0 | 0.00 | 0.00 | 0.00 | 82 | 1018.1 |
| 20260507083012 | 55 | 72 | 2.0 | 3.0 | 0.00 | 0.00 | 0.00 | 82 | 1018.1 |
| 20260507081518 | 56 | 70 | 2.0 | 2.0 | 0.00 | 0.00 | 0.00 | 82 | 1018.1 |
| 20260507080023 | 56 | 9 | 0.0 | 2.0 | 0.00 | 0.00 | 0.00 | 83 | 1018.2 |
| 20260507074530 | 56 | 360 | 1.0 | 2.0 | 0.00 | 0.00 | 0.00 | 83 | 1018.2 |
| 20260507073025 | 56 | 57 | 0.0 | 1.0 | 0.00 | 0.00 | 0.00 | 82 | 1018.1 |
| 20260507071512 | 56 | 57 | 0.0 | 0.0 | 0.00 | 0.00 | 0.00 | 82 | 1018.2 |
| 20260507070020 | 57 | 24 | 0.0 | 2.0 | 0.00 | 0.00 | 0.00 | 81 | 1018.4 |
| 20260507064523 | 57 | 352 | 0.0 | 2.0 | 0.00 | 0.00 | 0.00 | 80 | 1018.4 |
| 20260507063027 | 57 | 340 | 0.0 | 2.0 | 0.00 | 0.00 | 0.00 | 81 | 1018.4 |
| 20260507061533 | 57 | 321 | 0.0 | 0.0 | 0.00 | 0.00 | 0.00 | 82 | 1018.3 |
| 20260507060018 | 57 | 53 | 0.0 | 1.0 | 0.00 | 0.00 | 0.00 | 83 | 1018.5 |
| 20260507054522 | 57 | 74 | 0.0 | 2.0 | 0.00 | 0.00 | 0.00 | 80 | 1018.5 |
| 20260507053031 | 57 | 74 | 0.0 | 2.0 | 0.00 | 0.00 | 0.00 | 80 | 1018.5 |
| 20260507051525 | 58 | 73 | 0.0 | 2.0 | 0.00 | 0.00 | 0.00 | 80 | 1018.3 |
| 20260507050014 | 58 | 59 | 2.0 | 3.0 | 0.00 | 0.00 | 0.00 | 79 | 1018.3 |
| 20260507044522 | 58 | 56 | 0.0 | 3.0 | 0.00 | 0.00 | 0.00 | 80 | 1018.4 |
| 20260507043030 | 59 | 55 | 2.0 | 3.0 | 0.00 | 0.00 | 0.00 | 78 | 1018.4 |
| 20260507041531 | 59 | 61 | 0.0 | 2.0 | 0.00 | 0.00 | 0.00 | 78 | 1018.3 |
| 20260507040027 | 60 | 59 | 2.0 | 3.0 | 0.00 | 0.00 | 0.00 | 77 | 1018.2 |
| 20260507034516 | 60 | 329 | 0.0 | 2.0 | 0.00 | 0.00 | 0.00 | 75 | 1018.1 |
| 20260507033024 | 62 | 229 | 0.0 | 2.0 | 0.00 | 0.00 | 0.00 | 74 | 1017.9 |
| 20260507031523 | 62 | 174 | 0.0 | 2.0 | 0.00 | 0.00 | 0.00 | 73 | 1017.9 |
| 20260507030029 | 63 | 173 | 0.0 | 2.0 | 0.00 | 0.00 | 0.00 | 71 | 1017.7 |
| 20260507024531 | 64 | 186 | 0.0 | 2.0 | 0.00 | 0.00 | 0.00 | 70 | 1017.4 |
| 20260507023020 | 65 | 166 | 0.0 | 3.0 | 0.00 | 0.00 | 0.00 | 67 | 1017.3 |
| 20260507021524 | 67 | 189 | 0.0 | 3.0 | 0.00 | 0.00 | 0.00 | 63 | 1017.3 |
| 20260507020031 | 68 | 226 | 2.0 | 4.0 | 0.00 | 0.00 | 0.00 | 62 | 1017.1 |
| 20260507014527 | 69 | 248 | 3.0 | 7.0 | 0.00 | 0.00 | 0.00 | 61 | 1017.1 |
| 20260507013031 | 69 | 243 | 3.0 | 7.0 | 0.00 | 0.00 | 0.00 | 58 | 1017.1 |
| 20260507011524 | 70 | 189 | 2.0 | 4.0 | 0.00 | 0.00 | 0.00 | 58 | 1016.8 |
| 20260507010024 | 71 | 221 | 2.0 | 6.0 | 0.00 | 0.00 | 0.00 | 57 | 1017.0 |
| 20260507004515 | 71 | 227 | 1.0 | 4.0 | 0.00 | 0.00 | 0.00 | 55 | 1016.9 |
| 20260507003019 | 71 | 229 | 2.0 | 10.0 | 0.00 | 0.00 | 0.00 | 57 | 1016.8 |
| 20260507001523 | 72 | 260 | 5.0 | 11.0 | 0.00 | 0.00 | 0.00 | 55 | 1016.7 |
| 20260507000008 | 72 | 265 | 2.0 | 12.0 | 0.00 | 0.00 | 0.00 | 52 | 1016.7 |
| 20260506234529 | 73 | 244 | 6.0 | 11.0 | 0.00 | 0.00 | 0.00 | 48 | 1016.6 |
| 20260506233019 | 72 | 209 | 3.0 | 13.0 | 0.00 | 0.00 | 0.00 | 49 | 1016.6 |
| 20260506231524 | 73 | 218 | 5.0 | 10.0 | 0.00 | 0.00 | 0.00 | 47 | 1016.7 |
| 20260506230027 | 73 | 277 | 7.0 | 11.0 | 0.00 | 0.00 | 0.00 | 46 | 1016.8 |
| 20260506224522 | 73 | 127 | 4.0 | 9.0 | 0.00 | 0.00 | 0.00 | 47 | 1017.0 |
| 20260506223013 | 73 | 303 | 3.0 | 8.0 | 0.00 | 0.00 | 0.00 | 47 | 1017.0 |
| 20260506221520 | 73 | 207 | 3.0 | 10.0 | 0.00 | 0.00 | 0.00 | 48 | 1017.2 |
| 20260506220033 | 72 | 269 | 6.0 | 12.0 | 0.00 | 0.00 | 0.00 | 49 | 1017.3 |
| 20260506214524 | 72 | 261 | 7.0 | 10.0 | 0.00 | 0.00 | 0.00 | 51 | 1017.4 |
| 20260506213011 | 72 | 222 | 3.0 | 13.0 | 0.00 | 0.00 | 0.00 | 52 | 1017.5 |
| 20260506211520 | 71 | 244 | 4.0 | 13.0 | 0.00 | 0.00 | 0.00 | 53 | 1017.7 |
| 20260506210021 | 72 | 281 | 3.0 | 10.0 | 0.00 | 0.00 | 0.00 | 54 | 1017.8 |
| 20260506204525 | 71 | 200 | 6.0 | 13.0 | 0.00 | 0.00 | 0.00 | 54 | 1017.9 |
| 20260506203015 | 72 | 246 | 3.0 | 15.0 | 0.00 | 0.00 | 0.00 | 55 | 1018.0 |
| 20260506201515 | 70 | 284 | 4.0 | 13.0 | 0.00 | 0.00 | 0.00 | 56 | 1018.2 |
| 20260506200019 | 70 | 255 | 3.0 | 12.0 | 0.00 | 0.00 | 0.00 | 57 | 1018.3 |
| 20260506194531 | 70 | 244 | 5.0 | 13.0 | 0.00 | 0.00 | 0.00 | 56 | 1018.4 |
| 20260506193024 | 71 | 276 | 7.0 | 12.0 | 0.00 | 0.00 | 0.00 | 55 | 1018.5 |
| 20260506191518 | 70 | 238 | 6.0 | 11.0 | 0.00 | 0.00 | 0.00 | 56 | 1018.8 |
| 20260506190020 | 69 | 224 | 2.0 | 13.0 | 0.00 | 0.00 | 0.00 | 59 | 1018.8 |
| 20260506184528 | 70 | 256 | 7.0 | 12.0 | 0.00 | 0.00 | 0.00 | 57 | 1019.0 |
| 20260506183023 | 69 | 284 | 6.0 | 11.0 | 0.00 | 0.00 | 0.00 | 52 | 1019.1 |
| 20260506181526 | 69 | 251 | 3.0 | 10.0 | 0.00 | 0.00 | 0.00 | 51 | 1019.2 |
| 20260506180021 | 68 | 249 | 8.0 | 11.0 | 0.00 | 0.00 | 0.00 | 49 | 1019.2 |
| 20260506174519 | 67 | 203 | 3.0 | 6.0 | 0.00 | 0.00 | 0.00 | 54 | 1019.2 |
| 20260506173024 | 67 | 281 | 2.0 | 8.0 | 0.00 | 0.00 | 0.00 | 56 | 1019.3 |
| 20260506171526 | 66 | 160 | 3.0 | 8.0 | 0.00 | 0.00 | 0.00 | 59 | 1019.2 |
| 20260506170018 | 65 | 140 | 3.0 | 6.0 | 0.00 | 0.00 | 0.00 | 62 | 1019.4 |
| 20260506164523 | 64 | 138 | 2.0 | 8.0 | 0.00 | 0.00 | 0.00 | 65 | 1019.3 |
| 20260506163026 | 63 | 234 | 1.0 | 4.0 | 0.00 | 0.00 | 0.00 | 67 | 1019.4 |
| 20260506161528 | 62 | 163 | 5.0 | 9.0 | 0.00 | 0.00 | 0.00 | 70 | 1019.4 |
| 20260506160026 | 61 | 165 | 1.0 | 6.0 | 0.00 | 0.00 | 0.00 | 70 | 1019.5 |
| 20260506154524 | 61 | 222 | 2.0 | 6.0 | 0.00 | 0.00 | 0.00 | 71 | 1019.4 |
| 20260506151526 | 61 | 217 | 1.0 | 6.0 | 0.00 | 0.00 | 0.00 | 73 | 1019.4 |
| 20260506150011 | 60 | 136 | 2.0 | 5.0 | 0.00 | 0.00 | 0.00 | 74 | 1019.3 |
| 20260506144517 | 60 | 169 | 1.0 | 2.0 | 0.00 | 0.00 | 0.00 | 76 | 1019.4 |
| 20260506143024 | 59 | 88 | 0.0 | 2.0 | 0.00 | 0.00 | 0.00 | 77 | 1019.3 |
| 20260506140009 | 53 | 59 | 0.0 | 0.0 | 0.00 | 0.00 | 0.00 | 85 | 1019.3 |
| 20260506134522 | 51 | 59 | 0.0 | 0.0 | 0.00 | 0.00 | 0.00 | 1019.2 | |
| 20260506133020 | 50 | 61 | 0.0 | 0.0 | 0.00 | 0.00 | 0.00 | 86 | 1018.9 |
| 20260506131539 | 51 | 61 | 0.0 | 0.0 | 0.00 | 0.00 | 0.00 | 1018.8 | |
| 20260506130010 | 51 | 50 | 0.0 | 0.0 | 0.00 | 0.00 | 0.00 | 85 | 1018.6 |
| 20260506121504 | 52 | 49 | 0.0 | 2.0 | 0.00 | 0.00 | 0.00 | 83 | 1018.2 |
| 20260506120014 | 52 | 55 | 1.0 | 3.0 | 0.00 | 0.00 | 0.00 | 83 | 1018.2 |
| 20260506114516 | 52 | 69 | 2.0 | 3.0 | 0.00 | 0.00 | 0.00 | 83 | 1018.2 |
| 20260506113022 | 51 | 63 | 1.0 | 2.0 | 0.00 | 0.00 | 0.00 | 84 | 1018.2 |